| time (UTC) | temp F | wind direction | speed knots | gust knots | rain 1hr in | rain 24hr in | rain mn in | humidity % | barometer mb |
| 20260509211340 | 63 | 283 | 2.6 | 9.6 | 0.00 | 0.00 | 0.00 | 62 | 1002.8 |
| 20260509210849 | 64 | 120 | 2.6 | 9.6 | 0.00 | 0.00 | 0.00 | 60 | 1002.8 |
| 20260509210357 | 64 | 97 | 3.5 | 9.6 | 0.00 | 0.00 | 0.00 | 62 | 1002.7 |
| 20260509205855 | 63 | 125 | 3.5 | 10.4 | 0.00 | 0.00 | 0.00 | 60 | 1002.7 |
| 20260509205336 | 63 | 219 | 4.3 | 11.3 | 0.00 | 0.00 | 0.00 | 62 | 1002.8 |
| 20260509204839 | 62 | 194 | 2.6 | 7.8 | 0.00 | 0.00 | 0.00 | 63 | 1002.8 |
| 20260509204359 | 62 | 221 | 2.6 | 6.1 | 0.00 | 0.00 | 0.00 | 60 | 1002.9 |
| 20260509203901 | 62 | 192 | 1.7 | 7.0 | 0.00 | 0.00 | 0.00 | 60 | 1003.0 |
| 20260509203332 | 63 | 258 | 0.9 | 7.8 | 0.00 | 0.00 | 0.00 | 61 | 1003.1 |
| 20260509202857 | 62 | 336 | 1.7 | 6.1 | 0.00 | 0.00 | 0.00 | 62 | 1003.1 |
| 20260509202337 | 62 | 286 | 2.6 | 8.7 | 0.00 | 0.00 | 0.00 | 62 | 1003.2 |
| 20260509201901 | 62 | 270 | 3.5 | 8.7 | 0.00 | 0.00 | 0.00 | 61 | 1003.2 |
| 20260509201343 | 62 | 156 | 2.6 | 7.8 | 0.00 | 0.00 | 0.00 | 61 | 1003.2 |
| 20260509200843 | 63 | 223 | 2.6 | 12.2 | 0.00 | 0.00 | 0.00 | 60 | 1003.3 |
| 20260509200350 | 65 | 251 | 4.3 | 12.2 | 0.00 | 0.00 | 0.00 | 59 | 1003.3 |
| 20260509195840 | 65 | 267 | 6.1 | 10.4 | 0.00 | 0.00 | 0.00 | 60 | 1003.3 |
| 20260509195340 | 64 | 231 | 4.3 | 11.3 | 0.00 | 0.00 | 0.00 | 61 | 1003.2 |
| 20260509194859 | 64 | 304 | 2.6 | 11.3 | 0.00 | 0.00 | 0.00 | 58 | 1003.2 |
| 20260509194341 | 64 | 130 | 4.3 | 12.2 | 0.00 | 0.00 | 0.00 | 60 | 1003.4 |
| 20260509193830 | 64 | 161 | 3.5 | 8.7 | 0.00 | 0.00 | 0.00 | 60 | 1003.6 |
| 20260509193411 | 63 | 198 | 1.7 | 7.8 | 0.00 | 0.00 | 0.00 | 64 | 1003.7 |
| 20260509192832 | 64 | 148 | 3.5 | 10.4 | 0.00 | 0.00 | 0.00 | 60 | 1003.7 |
| 20260509192354 | 65 | 238 | 3.5 | 7.0 | 0.00 | 0.00 | 0.00 | 61 | 1004.0 |
| 20260509191842 | 64 | 234 | 1.7 | 12.2 | 0.00 | 0.00 | 0.00 | 65 | 1004.1 |
| 20260509191351 | 63 | 317 | 5.2 | 12.2 | 0.00 | 0.00 | 0.00 | 64 | 1004.0 |
| 20260509190847 | 62 | 116 | 3.5 | 9.6 | 0.00 | 0.00 | 0.00 | 62 | 1004.1 |
| 20260509190330 | 62 | 140 | 3.5 | 9.6 | 0.00 | 0.00 | 0.00 | 62 | 1004.1 |
| 20260509185856 | 63 | 149 | 2.6 | 8.7 | 0.00 | 0.00 | 0.00 | 59 | 1004.1 |
| 20260509185354 | 63 | 262 | 3.5 | 10.4 | 0.00 | 0.00 | 0.00 | 61 | 1004.0 |
| 20260509184840 | 64 | 180 | 4.3 | 10.4 | 0.00 | 0.00 | 0.00 | 63 | 1003.9 |
| 20260509184331 | 63 | 191 | 3.5 | 9.6 | 0.00 | 0.00 | 0.00 | 59 | 1003.9 |
| 20260509183834 | 64 | 274 | 5.2 | 9.6 | 0.00 | 0.00 | 0.00 | 59 | 1004.0 |
| 20260509183351 | 63 | 205 | 5.2 | 8.7 | 0.00 | 0.00 | 0.00 | 64 | 1003.9 |
| 20260509182849 | 63 | 65 | 2.6 | 12.2 | 0.00 | 0.00 | 0.00 | 59 | 1004.0 |
| 20260509182346 | 63 | 125 | 3.5 | 12.2 | 0.00 | 0.00 | 0.00 | 62 | 1004.0 |
| 20260509181830 | 63 | 251 | 3.5 | 8.7 | 0.00 | 0.00 | 0.00 | 60 | 1004.0 |
| 20260509181332 | 62 | 79 | 1.7 | 8.7 | 0.00 | 0.00 | 0.00 | 67 | 1004.0 |
| 20260509180845 | 62 | 200 | 2.6 | 8.7 | 0.00 | 0.00 | 0.00 | 66 | 1004.1 |
| 20260509180343 | 62 | 224 | 3.5 | 7.8 | 0.00 | 0.00 | 0.00 | 65 | 1004.1 |
| 20260509175844 | 62 | 212 | 2.6 | 8.7 | 0.00 | 0.00 | 0.00 | 63 | 1004.2 |
| 20260509175340 | 63 | 221 | 4.3 | 8.7 | 0.00 | 0.00 | 0.00 | 60 | 1004.2 |
| 20260509174836 | 63 | 218 | 4.3 | 12.2 | 0.00 | 0.00 | 0.00 | 62 | 1004.1 |
| 20260509174334 | 63 | 179 | 3.5 | 8.7 | 0.00 | 0.00 | 0.00 | 68 | 1004.3 |
| 20260509173854 | 61 | 298 | 3.5 | 9.6 | 0.00 | 0.00 | 0.00 | 70 | 1004.4 |
| 20260509173346 | 60 | 231 | 3.5 | 9.6 | 0.00 | 0.00 | 0.00 | 69 | 1004.4 |
| 20260509172907 | 60 | 237 | 3.5 | 12.2 | 0.00 | 0.00 | 0.00 | 70 | 1004.6 |
| 20260509172352 | 61 | 260 | 5.2 | 12.2 | 0.00 | 0.00 | 0.00 | 67 | 1004.6 |
| 20260509171832 | 61 | 274 | 3.5 | 9.6 | 0.00 | 0.00 | 0.00 | 69 | 1004.5 |
| 20260509171332 | 61 | 235 | 2.6 | 8.7 | 0.00 | 0.00 | 0.00 | 66 | 1004.4 |
| 20260509170841 | 61 | 254 | 3.5 | 8.7 | 0.00 | 0.00 | 0.00 | 68 | 1004.6 |
| 20260509170359 | 60 | 213 | 3.5 | 9.6 | 0.00 | 0.00 | 0.00 | 72 | 1004.7 |
| 20260509165834 | 60 | 135 | 5.2 | 9.6 | 0.00 | 0.00 | 0.00 | 69 | 1004.8 |
| 20260509165344 | 61 | 213 | 3.5 | 7.8 | 0.00 | 0.00 | 0.00 | 69 | 1004.7 |
| 20260509164850 | 60 | 355 | 2.6 | 8.7 | 0.00 | 0.00 | 0.00 | 70 | 1004.7 |
| 20260509164332 | 60 | 240 | 4.3 | 9.6 | 0.00 | 0.00 | 0.00 | 70 | 1004.8 |
| 20260509163831 | 60 | 163 | 2.6 | 9.6 | 0.00 | 0.00 | 0.00 | 71 | 1004.7 |
| 20260509163346 | 60 | 216 | 2.6 | 9.6 | 0.00 | 0.00 | 0.00 | 73 | 1004.7 |
| 20260509162840 | 60 | 227 | 5.2 | 8.7 | 0.00 | 0.00 | 0.00 | 72 | 1004.8 |
| 20260509162432 | 60 | 43 | 2.6 | 10.4 | 0.00 | 0.00 | 0.00 | 70 | 1005.0 |
| 20260509161839 | 60 | 200 | 4.3 | 10.4 | 0.00 | 0.00 | 0.00 | 74 | 1004.9 |
| 20260509161350 | 60 | 246 | 3.5 | 7.8 | 0.00 | 0.00 | 0.00 | 73 | 1005.0 |
| 20260509160857 | 58 | 258 | 2.6 | 8.7 | 0.00 | 0.00 | 0.00 | 76 | 1005.1 |
| 20260509160416 | 58 | 223 | 6.1 | 8.7 | 0.00 | 0.00 | 0.00 | 74 | 1005.2 |
| 20260509155841 | 57 | 265 | 4.3 | 8.7 | 0.00 | 0.00 | 0.00 | 77 | 1005.1 |
| 20260509155345 | 57 | 244 | 4.3 | 8.7 | 0.00 | 0.00 | 0.00 | 76 | 1005.2 |
| 20260509154832 | 56 | 243 | 2.6 | 9.6 | 0.00 | 0.00 | 0.00 | 77 | 1005.3 |
| 20260509154350 | 56 | 252 | 4.3 | 9.6 | 0.00 | 0.00 | 0.00 | 76 | 1005.4 |
| 20260509153857 | 56 | 244 | 4.3 | 7.8 | 0.00 | 0.00 | 0.00 | 77 | 1005.3 |
| 20260509153406 | 57 | 268 | 3.5 | 8.7 | 0.00 | 0.00 | 0.00 | 78 | 1005.5 |
| 20260509152839 | 57 | 242 | 3.5 | 8.7 | 0.00 | 0.00 | 0.00 | 79 | 1005.4 |
| 20260509152337 | 56 | 246 | 4.3 | 8.7 | 0.00 | 0.00 | 0.00 | 79 | 1005.3 |
| 20260509151839 | 56 | 183 | 0.9 | 7.8 | 0.00 | 0.00 | 0.00 | 79 | 1005.3 |
| 20260509151334 | 56 | 190 | 1.7 | 9.6 | 0.00 | 0.00 | 0.00 | 80 | 1005.3 |
| 20260509150856 | 56 | 230 | 2.6 | 9.6 | 0.00 | 0.00 | 0.00 | 79 | 1005.2 |
| 20260509150336 | 56 | 180 | 1.7 | 6.1 | 0.00 | 0.00 | 0.00 | 81 | 1005.3 |
| 20260509145838 | 55 | 238 | 2.6 | 5.2 | 0.00 | 0.00 | 0.00 | 81 | 1005.5 |
| 20260509145414 | 55 | 223 | 1.7 | 4.3 | 0.00 | 0.00 | 0.00 | 81 | 1005.4 |
| 20260509144849 | 55 | 214 | 1.7 | 4.3 | 0.00 | 0.00 | 0.00 | 82 | 1005.5 |
| 20260509144342 | 54 | 242 | 2.6 | 7.0 | 0.00 | 0.00 | 0.00 | 82 | 1005.4 |
| 20260509143844 | 54 | 219 | 1.7 | 7.0 | 0.00 | 0.00 | 0.00 | 82 | 1005.4 |
| 20260509143406 | 54 | 20 | 1.7 | 8.7 | 0.00 | 0.00 | 0.00 | 82 | 1005.5 |
| 20260509142844 | 54 | 243 | 2.6 | 8.7 | 0.00 | 0.00 | 0.00 | 82 | 1005.5 |
| 20260509142346 | 54 | 135 | 1.7 | 7.0 | 0.00 | 0.00 | 0.00 | 83 | 1005.4 |
| 20260509141849 | 54 | 159 | 2.6 | 7.0 | 0.00 | 0.00 | 0.00 | 83 | 1005.4 |
| 20260509141352 | 54 | 216 | 1.7 | 4.3 | 0.00 | 0.00 | 0.00 | 83 | 1005.5 |
| 20260509140837 | 54 | 239 | 0.9 | 7.0 | 0.00 | 0.00 | 0.00 | 83 | 1005.5 |
| 20260509140352 | 54 | 9 | 1.7 | 7.0 | 0.00 | 0.00 | 0.00 | 82 | 1005.6 |
| 20260509135852 | 55 | 249 | 2.6 | 6.1 | 0.00 | 0.00 | 0.00 | 82 | 1005.6 |
| 20260509135350 | 55 | 145 | 3.5 | 12.2 | 0.00 | 0.00 | 0.00 | 83 | 1005.6 |
| 20260509134853 | 54 | 245 | 1.7 | 12.2 | 0.00 | 0.00 | 0.00 | 85 | 1005.6 |
| 20260509134407 | 53 | 161 | 1.7 | 7.0 | 0.00 | 0.00 | 0.00 | 85 | 1005.6 |
| 20260509133845 | 53 | 212 | 0.9 | 7.0 | 0.00 | 0.00 | 0.00 | 83 | 1005.6 |
| 20260509133351 | 54 | 154 | 2.6 | 6.1 | 0.00 | 0.00 | 0.00 | 84 | 1005.7 |
| 20260509132856 | 53 | 237 | 1.7 | 7.0 | 0.00 | 0.00 | 0.00 | 84 | 1005.7 |
| 20260509132344 | 54 | 159 | 1.7 | 7.8 | 0.00 | 0.00 | 0.00 | 85 | 1005.7 |
| 20260509131837 | 53 | 198 | 2.6 | 7.8 | 0.00 | 0.00 | 0.00 | 86 | 1005.8 |
| 20260509131343 | 53 | 178 | 3.5 | 7.8 | 0.00 | 0.00 | 0.00 | 88 | 1005.8 |
| 20260509130859 | 52 | 223 | 3.5 | 7.8 | 0.00 | 0.00 | 0.00 | 88 | 1006.0 |
| 20260509130336 | 52 | 145 | 1.7 | 6.1 | 0.00 | 0.00 | 0.00 | 89 | 1006.1 |
| 20260509125403 | 51 | 254 | 3.5 | 7.0 | 0.00 | 0.01 | 0.00 | 89 | 1006.1 |
| 20260509124846 | 51 | 259 | 0.9 | 4.3 | 0.00 | 0.01 | 0.00 | 90 | 1006.0 |
| 20260509124411 | 51 | 269 | 1.7 | 4.3 | 0.00 | 0.01 | 0.00 | 90 | 1006.1 |
| 20260509123851 | 51 | 274 | 0.9 | 4.3 | 0.00 | 0.01 | 0.00 | 90 | 1006.2 |
| 20260508234416 | 49 | 222 | 0.0 | 1.7 | 0.00 | 0.09 | 0.09 | 53 | 1008.5 |
| 20260508233854 | 50 | 222 | 0.0 | 1.7 | 0.00 | 0.09 | 0.09 | 56 | 1008.5 |
| 20260508233344 | 50 | 222 | 0.0 | 3.5 | 0.00 | 0.09 | 0.09 | 54 | 1008.5 |
| 20260508232843 | 50 | 182 | 1.7 | 3.5 | 0.00 | 0.09 | 0.09 | 56 | 1008.5 |
| 20260508232346 | 50 | 223 | 0.9 | 3.5 | 0.00 | 0.09 | 0.09 | 55 | 1008.4 |
| 20260508231853 | 50 | 229 | 1.7 | 3.5 | 0.00 | 0.09 | 0.09 | 58 | 1008.5 |
| 20260508231340 | 50 | 185 | 0.9 | 3.5 | 0.00 | 0.09 | 0.09 | 53 | 1008.4 |
| 20260508230834 | 50 | 178 | 0.9 | 4.3 | 0.00 | 0.09 | 0.09 | 52 | 1008.4 |
| 20260508230331 | 51 | 248 | 2.6 | 6.1 | 0.00 | 0.09 | 0.09 | 48 | 1008.4 |
| 20260508225844 | 51 | 211 | 2.6 | 6.1 | 0.00 | 0.09 | 0.09 | 49 | 1008.4 |
| 20260508225340 | 51 | 329 | 2.6 | 3.5 | 0.00 | 0.09 | 0.09 | 46 | 1008.4 |
| 20260508224840 | 51 | 172 | 0.9 | 3.5 | 0.00 | 0.09 | 0.09 | 49 | 1008.4 |
| 20260508224340 | 52 | 240 | 1.7 | 3.5 | 0.00 | 0.09 | 0.09 | 48 | 1008.5 |
| 20260508223836 | 52 | 194 | 1.7 | 6.1 | 0.00 | 0.09 | 0.09 | 47 | 1008.6 |
| 20260508223352 | 52 | 232 | 2.6 | 7.8 | 0.00 | 0.09 | 0.09 | 44 | 1008.6 |
| 20260508222843 | 53 | 207 | 1.7 | 9.6 | 0.00 | 0.09 | 0.09 | 47 | 1008.6 |
| 20260508222335 | 53 | 234 | 3.5 | 9.6 | 0.00 | 0.09 | 0.09 | 43 | 1008.5 |
| 20260508221837 | 53 | 271 | 1.7 | 8.7 | 0.00 | 0.09 | 0.09 | 44 | 1008.5 |
| 20260508221339 | 53 | 270 | 1.7 | 7.0 | 0.00 | 0.09 | 0.09 | 45 | 1008.4 |
| 20260508220857 | 53 | 223 | 3.5 | 7.0 | 0.00 | 0.09 | 0.09 | 41 | 1008.4 |
| 20260508220347 | 53 | 236 | 3.5 | 7.8 | 0.00 | 0.09 | 0.09 | 42 | 1008.4 |
| 20260508215834 | 53 | 238 | 3.5 | 8.7 | 0.00 | 0.09 | 0.09 | 42 | 1008.4 |
| 20260508215407 | 54 | 216 | 5.2 | 8.7 | 0.00 | 0.09 | 0.09 | 40 | 1008.5 |
| 20260508214842 | 54 | 13 | 0.9 | 7.8 | 0.00 | 0.09 | 0.09 | 45 | 1008.4 |
| 20260508214338 | 53 | 215 | 1.7 | 7.8 | 0.00 | 0.09 | 0.09 | 42 | 1008.4 |
| 20260508213844 | 54 | 289 | 2.6 | 7.0 | 0.00 | 0.09 | 0.09 | 40 | 1008.4 |
| 20260508213350 | 54 | 219 | 3.5 | 7.0 | 0.00 | 0.09 | 0.09 | 44 | 1008.4 |
| 20260508212906 | 54 | 209 | 1.7 | 7.0 | 0.00 | 0.09 | 0.09 | 44 | 1008.5 |
| 20260508212349 | 54 | 299 | 0.9 | 7.8 | 0.00 | 0.09 | 0.09 | 39 | 1008.4 |
| 20260508211911 | 54 | 253 | 3.5 | 7.8 | 0.00 | 0.09 | 0.09 | 39 | 1008.4 |